Regional Weather Roundup
Issued by NWS Charleston, SC

Current Version | Previous Version | Text Only | Print | Product List | Glossary Off
Versions: 1 2 3 4 5 6 7 8 9 10 11 12 13 14 15 16 17 18 19 20 21 22 23 24 25 26 27 28 29 30 31 32 33 34 35 36 37 38 39 40 41 42 43 44 45 46 47 48 49 50
000 ASUS42 KCHS 061712 RWRCHS REGIONAL WEATHER ROUNDUP NATIONAL WEATHER SERVICE CHARLESTON SC 1200 PM EST FRI MAR 06 2015 NOTE: "FAIR" INDICATES FEW OR NO CLOUDS BELOW 12,000 FEET WITH NO SIGNIFICANT WEATHER AND/OR OBSTRUCTIONS TO VISIBILITY. NOT ALL STATIONS ARE QUALITY CONTROLLED BY THE NATIONAL WEATHER SERVICE. USE DATA WITH CAUTION...ESPECIALLY DEWPOINT OBSERVATIONS. SCZ027-030-031-034>040-042>050-061800- ...SOUTHEAST SOUTH CAROLINA... CITY SKY/WX TMP DP RH WIND PRES REMARKS N CHARLESTON CLOUDY 42 30 62 NE14 30.42S WATERFRONT PRK NOT AVBL MOUNT PLEASANT CLOUDY 41 30 65 N6 30.43S PINOPOLIS N/A 41 30 65 NE12 30.36S MONCKS CORNER CLOUDY 43 30 61 N8 30.43F SUMMERVILLE CLOUDY 41 32 70 N10 30.44S BEAUFORT MCAS CLOUDY 42 34 73 NE13 30.41F BEAUFORT ARPT CLOUDY 43 36 75 NE12G21 30.41S HILTON HEAD IS CLOUDY 43 34 70 N13G20 30.42S WALTERBORO CLOUDY 43 34 70 NE7 30.44S ALLENDALE CLOUDY 43 32 65 N9 30.43S ...SOUTHERN MIDLANDS AND PEE DEE... CITY SKY/WX TMP DP RH WIND PRES REMARKS GEORGETOWN NOT AVBL KINGSTREE NOT AVBL ORANGEBURG CLOUDY 42 27 55 NE10 30.44S BARNWELL CLOUDY 45 32 61 N10 30.44F AIKEN FAIR 43 27 52 NE12 30.46S MANNING CLOUDY 43 23 45 NE7 30.45S COLUMBIA MOSUNNY 40 26 57 NE7 30.46S WCI 35 SUMTER MOSUNNY 40 26 56 N12 30.44F WCI 33 FLORENCE SUNNY 40 19 43 NE13G22 30.47S WCI 32 MYRTLE BEACH CLOUDY 39 19 45 N17 30.46S WCI 30 N MYRTLE BEACH CLOUDY 38 20 48 N8G20 30.44S WCI 32 $$ GAZ063-065-086>088-099>101-113>116-118-119-134>141-150-061800- ...SOUTHEAST GEORGIA... CITY SKY/WX TMP DP RH WIND PRES REMARKS SAVANNAH ARPT CLOUDY 45 33 63 NE9 30.40S HUNTER AAF CLOUDY 44 36 71 N13 30.38S FORT STEWART CLOUDY 45 36 70 N12 30.38R STATESBORO CLOUDY 42 35 76 N9 30.42S SYLVANIA CLOUDY 42 36 79 E9 30.43S CLAXTON CLOUDY 43 36 75 NE9 30.42S ...CSRA...CENTRAL AND FAR SOUTHEAST GEORGIA... CITY SKY/WX TMP DP RH WIND PRES REMARKS THOMSON MOSUNNY 45 33 63 NE5 30.48S AUGUSTA-BUSH CLOUDY 44 29 55 NE6 30.44F AUGUSTA-DANIEL SUNNY 46 30 53 NE8G16 30.43F SWAINSBORO CLOUDY 45 30 57 NE7 30.43S VIDALIA CLOUDY 43 36 75 NE10 30.41F EASTMAN CLOUDY 45 38 77 E10 30.44S HAZLEHURST CLOUDY 44 40 86 NE9 30.39S ALMA CLOUDY 46 39 76 NE7 30.38S WAYCROSS CLOUDY 49 45 84 NE8 30.38R JESUP CLOUDY 48 43 81 NE6 30.39S BAXLEY CLOUDY 46 39 76 NE8 30.38F BRUNSWICK CLOUDY 46 41 81 NE16G22 30.39R SAINT SIMONS CLOUDY 46 41 82 NE20G28 30.37R $$ SCZ027-028-034-036>038-045-046-048>050-GAZ119-141-061800- ...LAKE AND SUPPLEMENTAL COASTAL OBSERVATIONS... STATION/POSITION TIME TEMP WIND PRES WAVE SWELL AIR SEA DIR/SP/G HT/PER HT/PER/DIR (UTC) (F) (DEG/KT/KT) (MB) (FT/S) (FT/S/D) UPR LAKE MARION NOT AVBL WINYAH BAY NOT AVBL LAKE MURRAY 1600 35 60/ 5/ 8 1030.8S ACE BASIN NERRS NOT AVBL FORT PULASKI 1600 42 53 30/ 14/ 18 1029.8S SAPELO ISLAND 1600 45 30/ 15 1028.0S $$ ANZ835-935-AMZ111-154-330-350-352-354-370-450-454-472-061800- ...C-MAN AND BUOY OBSERVATIONS... STATION/POSITION TIME TEMP WIND PRES WAVE SWELL AIR SEA DIR/SP/G HT/PER HT/PER/DIR (UTC) (F) (DEG/KT/KT) (MB) (FT/S) (FT/S/D) BUOY 41004 1650 45 66 20/ 25/ 33 1027.3S 10/ 8 5/16 BUOY 41008 1650 46 55 30/ 23/ 27 1027.3R 7/ 7 2/110/11 FOLLY BEACH CMAN 1700 40 30/ 14/ 16 1030.4F CAPERS NEARSHORE 1600 39 40/ 19/ 25 N/A FRIPP NEARSHORE 1600 42 40/ 16/ 21 1028.4R STATION/POSITION TIME TEMP WIND PRES WAVE SWELL AIR SEA DIR/SP/G HT/PER HT/PER/DIR (UTC) (F) (DEG/KT/KT) (MB) (FT/S) (FT/S/D) 5E ST. MARYS GA 1621 53 N/A 6/ 6 2/110/11 FRYING PAN BUOY 1650 40 60 30/ 23/ 27 1029.4S 9/ 7 3/ 80/ 9 BUOY 41025 NOT AVBL CAPE LOOKOUT NC 1700 10/ 21/ 26 1030.2F BUOY 41002 1650 65 72 40/ 21/ 25 1022.5F 9/11 5/350/11 BUOY 41010 1620 73 75 360/ 12/ 14 1022.5F ST AUGUSTINE FL 1700 52 360/ 22/ 24 1026.1F $$

USA.gov is the U.S. government's official web portal to all federal, state and local government web resources and services.